Home   Weather   Dryden   Past weeks

Flag for Canada Past Weather in Dryden, Ontario, Canada — Yesterday and Last 2 Weeks

Now
59 °F

Light rain. Fog.


Feels Like: 56 °F
Forecast: 53 / 65 °F
Wind: 14 mph from Southeast

Location: Dryden Airport

Current Time: Sep 25, 2016 at 9:01:47 AM

Latest Report: Sep 25, 2016 at 8:00 AM


Visibility: 5 mi

Pressure: 29.79 "Hg

Humidity: 94%

Dew Point: 57 °F

Location of DrydenLocation

Past Weather in Dryden — Graph

°F

Dryden Temperature Yesterday

Maximum temperature yesterday: 63 °F (at 4:00 PM)
Minimum temperature yesterday: 50 °F (at 9:02 AM)
Average temperature yesterday: 56 °F

High & Low Weather Summary for the Past Weeks

 TemperatureHumidityPressure
High72 °F (Sep 11, 2:00 PM)100% (Sep 13, 1:02 AM)30.37 "Hg (Sep 13, 1:02 AM)
Low41 °F (Sep 23, 3:00 AM)37% (Sep 20, 5:00 PM)29.56 "Hg (Sep 19, 1:00 AM)
Average56 °F81%29.99 "Hg
* Reported Sep 10 8:00 AM — Sep 25 8:00 AM, Dryden, Weather by CustomWeather, © 2016

Note: Actual official high and low records may vary slightly from our data, if they occured in-between our weather recording intervals... More about our weather records

Advertising

Dryden Weather History for the Previous 24 Hours

Scroll right to see more
 ConditionsComfort  
Time TempWeatherWind HumidityBarometerVisibility
8:00 AM
Sun, Sep 25
59 °FLight rain. Fog.14 mph94%29.79 "Hg5 mi
7:00 AM59 °FLight rain. Fog.12 mph94%29.81 "Hg6 mi
6:50 AM59 °FLight rain. Fog.13 mph94%29.82 "Hg6 mi
6:00 AM59 °FLight rain. Fog.14 mph94%29.84 "Hg6 mi
5:00 AM59 °FOvercast.10 mph94%29.85 "Hg9 mi
4:00 AM59 °FOvercast.12 mph94%29.88 "Hg9 mi
3:00 AM59 °FLight rain. Overcast.9 mph94%29.91 "Hg9 mi
2:52 AM59 °FLight rain. Overcast.8 mph94%29.92 "Hg9 mi
2:00 AM61 °FOvercast.15 mph88%29.93 "Hg9 mi
1:00 AM61 °FOvercast.14 mph88%29.95 "Hg9 mi
12:00 AM63 °FOvercast.13 mph83%29.98 "Hg9 mi
11:00 PM
Sat, Sep 24
61 °FOvercast.13 mph88%29.98 "Hg9 mi
10:00 PM63 °FOvercast.13 mph77%30.01 "Hg9 mi
9:00 PM63 °FOvercast.12 mph77%30.04 "Hg9 mi
8:00 PM63 °FOvercast.12 mph73%30.05 "Hg9 mi
7:00 PM63 °FOvercast.8 mph77%30.03 "Hg9 mi
6:00 PM63 °FOvercast.10 mph77%30.04 "Hg9 mi
5:00 PM63 °FPartly sunny.15 mph77%30.05 "Hg9 mi
4:00 PM63 °FOvercast.17 mph77%30.06 "Hg9 mi
3:00 PM61 °FOvercast.13 mph77%30.08 "Hg9 mi
2:00 PM59 °FOvercast.15 mph82%30.11 "Hg9 mi
1:00 PM57 °FOvercast.14 mph88%30.12 "Hg9 mi
12:00 PM55 °FLow clouds.15 mph94%30.14 "Hg9 mi
11:00 AM54 °FMostly cloudy.10 mph94%30.15 "Hg9 mi
10:00 AM52 °FMostly cloudy.13 mph94%30.16 "Hg9 mi
9:56 AM52 °FMostly cloudy.13 mph94%30.16 "Hg9 mi
9:02 AM50 °FRain. Fog.9 mph94%30.17 "Hg3 mi
Weather by CustomWeather, © 2016

See weather overviewHow to use our weather pages